TimeCST,TemperatureF,Dew PointF,Humidity,Sea Level PressureIn,VisibilityMPH,Wind Direction,Wind SpeedMPH,Gust SpeedMPH,PrecipitationIn,Events,Conditions,WindDirDegrees,DateUTC
12:16 AM,57.2,57.2,100,30.16,2.5,South,4.6,-,0.03,Rain,Light Rain,180,2013-11-22 06:16:00
12:36 AM,57.2,57.2,100,30.17,3.0,SSW,3.5,-,0.03,Rain,Light Rain,200,2013-11-22 06:36:00
12:53 AM,57.9,57.9,100,30.16,3.0,Calm,Calm,-,0.03,,Overcast,0,2013-11-22 06:53:00
1:53 AM,57.9,57.9,100,30.18,5.0,Calm,Calm,-,0.01,Rain,Light Rain,0,2013-11-22 07:53:00
2:12 AM,57.2,57.2,100,30.18,2.5,Calm,Calm,-,0.03,Rain,Light Rain,0,2013-11-22 08:12:00
2:22 AM,57.2,57.2,100,30.18,3.0,NW,3.5,-,0.03,Rain,Light Rain,310,2013-11-22 08:22:00
2:53 AM,57.9,57.9,100,30.19,2.5,NW,3.5,-,0.05,Rain,Light Rain,310,2013-11-22 08:53:00
3:28 AM,57.2,57.2,100,30.18,1.8,Calm,Calm,-,0.09,Rain,Light Rain,0,2013-11-22 09:28:00
3:36 AM,57.2,57.2,100,30.18,2.0,Calm,Calm,-,0.09,Rain,Light Rain,0,2013-11-22 09:36:00
3:45 AM,57.2,57.2,100,30.19,6.0,North,3.5,-,0.10,Rain,Light Rain,350,2013-11-22 09:45:00
3:53 AM,57.9,57.0,97,30.19,9.0,North,4.6,-,0.10,Rain,Light Rain,350,2013-11-22 09:53:00
4:13 AM,57.2,57.2,100,30.18,10.0,North,5.8,-,0.00,Rain,Light Rain,10,2013-11-22 10:13:00
4:26 AM,57.2,57.2,100,30.19,9.0,NNW,6.9,-,0.02,Rain,Light Rain,340,2013-11-22 10:26:00
4:34 AM,57.2,55.4,94,30.19,9.0,North,8.1,-,0.03,Rain,Light Rain,350,2013-11-22 10:34:00
4:42 AM,57.2,55.4,94,30.19,10.0,North,6.9,-,0.03,Rain,Light Rain,10,2013-11-22 10:42:00
4:50 AM,57.2,55.4,94,30.19,10.0,North,4.6,-,0.03,,Overcast,360,2013-11-22 10:50:00
4:53 AM,57.0,55.9,96,30.19,10.0,NNE,5.8,-,0.03,,Overcast,20,2013-11-22 10:53:00
5:53 AM,55.9,54.0,93,30.22,3.0,North,9.2,-,0.00,Rain,Light Rain,10,2013-11-22 11:53:00
6:01 AM,55.4,53.6,94,30.22,2.5,North,8.1,-,0.00,Rain,Light Rain,10,2013-11-22 12:01:00
6:13 AM,55.4,53.6,94,30.23,3.0,North,9.2,-,0.00,Rain,Light Rain,10,2013-11-22 12:13:00
6:53 AM,54.0,53.1,97,30.25,4.0,North,9.2,17.3,0.01,Rain,Light Rain,360,2013-11-22 12:53:00
7:12 AM,53.6,53.6,100,30.26,10.0,North,10.4,17.3,0.00,,Overcast,360,2013-11-22 13:12:00
7:53 AM,54.0,52.0,93,30.28,9.0,North,8.1,-,0.00,,Overcast,350,2013-11-22 13:53:00
8:53 AM,54.0,52.0,93,30.31,8.0,North,6.9,-,0.01,Rain,Light Rain,360,2013-11-22 14:53:00
9:53 AM,52.0,50.0,93,30.35,10.0,North,10.4,17.3,0.00,,Overcast,350,2013-11-22 15:53:00
10:04 AM,51.8,48.2,88,30.35,8.0,North,10.4,18.4,N/A,,Overcast,350,2013-11-22 16:04:00
10:53 AM,50.0,46.9,89,30.36,10.0,North,10.4,20.7,N/A,,Overcast,350,2013-11-22 16:53:00
11:04 AM,50.0,46.4,87,30.36,10.0,North,10.4,21.9,N/A,,Overcast,350,2013-11-22 17:04:00
11:53 AM,48.9,45.0,86,30.37,10.0,North,9.2,18.4,N/A,,Overcast,350,2013-11-22 17:53:00
12:53 PM,48.9,44.1,83,30.35,10.0,North,10.4,20.7,N/A,,Overcast,360,2013-11-22 18:53:00
1:08 PM,48.2,44.6,87,30.35,10.0,North,8.1,-,N/A,,Overcast,360,2013-11-22 19:08:00
1:53 PM,46.9,42.1,83,30.35,10.0,North,9.2,18.4,N/A,,Overcast,350,2013-11-22 19:53:00
2:21 PM,46.4,42.8,87,30.35,10.0,North,10.4,19.6,N/A,,Overcast,10,2013-11-22 20:21:00
2:53 PM,46.0,41.0,83,30.36,10.0,North,11.5,18.4,N/A,,Overcast,350,2013-11-22 20:53:00
3:53 PM,46.0,39.9,79,30.39,10.0,North,6.9,-,N/A,,Overcast,360,2013-11-22 21:53:00
4:53 PM,45.0,39.9,82,30.40,10.0,North,8.1,-,N/A,,Overcast,10,2013-11-22 22:53:00
5:53 PM,45.0,39.0,80,30.41,10.0,North,10.4,-,N/A,,Overcast,360,2013-11-22 23:53:00
6:34 PM,42.8,37.4,81,30.41,10.0,North,6.9,17.3,N/A,,Overcast,10,2013-11-23 00:34:00
6:53 PM,43.0,37.9,82,30.41,10.0,North,9.2,17.3,N/A,,Overcast,10,2013-11-23 00:53:00
7:53 PM,42.1,37.0,82,30.42,10.0,NNE,13.8,20.7,N/A,,Overcast,30,2013-11-23 01:53:00
8:53 PM,42.1,36.0,79,30.44,10.0,NNE,11.5,20.7,N/A,,Overcast,30,2013-11-23 02:53:00
9:53 PM,41.0,36.0,82,30.44,10.0,NNE,12.7,23.0,N/A,,Overcast,30,2013-11-23 03:53:00
10:53 PM,41.0,36.0,82,30.44,10.0,NNE,6.9,16.1,N/A,,Overcast,30,2013-11-23 04:53:00
11:53 PM,39.9,35.1,83,30.44,10.0,NNE,9.2,-,N/A,,Overcast,30,2013-11-23 05:53:00